CZ-2C R/B

Satellite information

Favourite Embed

Satellite Type and Status

ROCKET BODYIN ORBIT

Key statistics

Satellite CZ-2C R/B at a glance.

Uptime

5092

Days in orbit

Revolutions

≈ 14.7

Per day

Orbit

SSO

Sun Synchronous Orbit

Inclination

98.1

Latest

Satellite identification and parameters

Extended collection of information and parameters for CZ-2C R/B.

Object identification

Identified? True

Debris? False

Object name: CZ-2C R/B

International designator: 2011-039B

Object number (NORAD): 37766

Object ID (CCSDS): 37766

Country: PEOPLES REPUBLIC OF CHINA (PRC)

Current information (Y/N): Y

RCS size: LARGE

Orbital parameters

Period: 97.978 minutes

Inclination: 98.1395 deg

SMA: 7040.1 km

Apoapsis: 691.901 km

Periapsis: 632.029 km

RAAN: 81.8651 deg

Eccentricy: 0.0042522

Argument of periapsis: 329.9264 deg

Mean anomaly: 29.95 deg

Mean motion: 14.69719695 rev/day

Mean motion (dot): 0.00000499 rev/day2

B* drag term: 0.000091296 1/REarth

Two-line elements (TLE)

Creation date: July 6, 2025, 6:05 p.m.

Reference frame: TEME

Reference center: EARTH

Epoch: July 6, 2025, 2:32 p.m. UTC

TLE line 0: 0 CZ-2C R/B

TLE line 1: 1 37766U 11039B 25187.60557219 .00000499 00000-0 91296-4 0 9994

TLE line 2: 2 37766 98.1395 81.8651 0042522 329.9264 29.9500 14.69719695746026

Live tracking on map

Real-time ground track for satellite CZ-2C R/B.

In-orbit conjunctions

A list of the most updated potential collisions computed for object CZ-2C R/B.

Target Orbit TCA Probability of collision Miss distance Type
COSMOS 2251 DEB LEO 2025-07-05 13:45:05 0.0006699586 233.0 (m) DEBRIS
CZ-4 DEB SSO 2024-12-19 17:47:58 0.0001777668 71.0 (m) DEBRIS

Associated space launch

CZ-2C R/B was lifted into orbit during the mission ‘Long March 2C | Shijian 10-02’, on board a Long March 2 space rocket.

The launch took place on July 29, 2011, 7:42 a.m. from Launch Area 4 (SLS-2 / 603).

For more information about the launch, click the button.

Launch to space Long March 2C | Shijian 10-02
Long March 2C | Shijian 10-02

Agency: N/A

Status: Launch Successful

Launch date: July 29, 2011, 7:42 a.m. UTC

Rocket: Long March 2

Launch pad: Launch Area 4 (SLS-2 / 603)

Location: Jiuquan Satellite Launch Center, People's Republic of China

...

Latest news about this satellite

There are no fresh news available about this satellite. Check back as we update our databases every day.


Newsletter sign-up

Weekly statistics, charts and insights to help you stay on top of the space industry.